owner,sensor,date,latitude,longitude,vertical_datum,wind_speed,wind_to_direction,wind_speed_of_gust,qcFlag 
DISL,ioos:station:DISL:MHPA:1,2019-01-02T02:00:00Z,30.6671,-87.9365,8.5,2.97,342.5,-9999.0,'1111122,1111122,1111122' 
DISL,ioos:station:DISL:MHPA:1,2019-01-02T03:00:00Z,30.6671,-87.9365,8.5,2.64,351.1,-9999.0,'1111122,1111122,1111122' 
DISL,ioos:station:DISL:MHPA:1,2019-01-02T04:00:00Z,30.6671,-87.9365,8.5,2.17,356.7,-9999.0,'1111122,1111122,1111122' 
DISL,ioos:station:DISL:MHPA:1,2019-01-02T05:00:00Z,30.6671,-87.9365,8.5,2.4,4.401,-9999.0,'1111122,1111122,1111122' 
DISL,ioos:station:DISL:MHPA:1,2019-01-02T06:00:00Z,30.6671,-87.9365,8.5,1.87,9.72,-9999.0,'1111122,1111122,1111122' 
DISL,ioos:station:DISL:MHPA:1,2019-01-02T07:00:00Z,30.6671,-87.9365,8.5,2.16,16.63,-9999.0,'1111122,1111122,1111122' 
DISL,ioos:station:DISL:MHPA:1,2019-01-02T08:00:00Z,30.6671,-87.9365,8.5,2.46,355.4,-9999.0,'1111122,1111122,1111122' 
DISL,ioos:station:DISL:MHPA:1,2019-01-02T09:00:00Z,30.6671,-87.9365,8.5,2.5,335.2,-9999.0,'1111122,1111122,1111122' 
DISL,ioos:station:DISL:MHPA:1,2019-01-02T10:00:00Z,30.6671,-87.9365,8.5,1.96,358.0,-9999.0,'1111122,1111122,1111122' 
DISL,ioos:station:DISL:MHPA:1,2019-01-02T11:00:00Z,30.6671,-87.9365,8.5,1.38,354.2,-9999.0,'1111122,1111122,1111122' 
DISL,ioos:station:DISL:MHPA:1,2019-01-02T12:00:00Z,30.6671,-87.9365,8.5,0.16,40.88,-9999.0,'1111122,1111122,1111122' 
DISL,ioos:station:DISL:MHPA:1,2019-01-02T12:10:00Z,30.6671,-87.9365,8.5,0.49,345.2,-9999.0,'1111122,1111122,1111122' 
DISL,ioos:station:DISL:MHPA:1,2019-01-02T16:00:00Z,30.6671,-87.9365,8.5,2.82,7.87,-9999.0,'1111122,1111122,1111122' 
DISL,ioos:station:DISL:MHPA:1,2019-01-02T16:50:00Z,30.6671,-87.9365,8.5,2.29,342.9,-9999.0,'1111122,1111122,1111122' 
DISL,ioos:station:DISL:MHPA:1,2019-01-02T18:00:00Z,30.6671,-87.9365,8.5,2.61,326.1,-9999.0,'1111122,1111122,1111122' 
DISL,ioos:station:DISL:MHPA:1,2019-01-02T19:00:00Z,30.6671,-87.9365,8.5,2.04,335.7,-9999.0,'1111122,1111122,1111122' 
DISL,ioos:station:DISL:MHPA:1,2019-01-02T20:00:00Z,30.6671,-87.9365,8.5,1.74,320.1,-9999.0,'1111122,1111122,1111122' 
DISL,ioos:station:DISL:MHPA:1,2019-01-02T21:00:00Z,30.6671,-87.9365,8.5,2.81,336.4,-9999.0,'1111122,1111122,1111122' 
DISL,ioos:station:DISL:MHPA:1,2019-01-02T22:00:00Z,30.6671,-87.9365,8.5,0.6,336.9,-9999.0,'1111122,1111122,1111122' 
DISL,ioos:station:DISL:MHPA:1,2019-01-02T22:50:00Z,30.6671,-87.9365,8.5,1.55,331.3,-9999.0,'1111122,1111122,1111122' 
DISL,ioos:station:DISL:MHPA:1,2019-01-03T00:00:00Z,30.6671,-87.9365,8.5,0.0,0.0,-9999.0,'1114422,1114422,1111122' 
DISL,ioos:station:DISL:MHPA:1,2019-01-03T01:00:00Z,30.6671,-87.9365,8.5,0.93,111.1,-9999.0,'1111122,1111122,1111122' 
DISL,ioos:station:DISL:MHPA:1,2019-01-03T02:00:00Z,30.6671,-87.9365,8.5,0.0,0.0,-9999.0,'1114422,1114422,1111122' 
DISL,ioos:station:DISL:MHPA:1,2019-01-03T02:10:00Z,30.6671,-87.9365,8.5,0.14,114.0,-9999.0,'1111122,1111122,1111122' 
DISL,ioos:station:DISL:MHPA:1,2019-01-04T15:00:00Z,30.6671,-87.9365,8.5,6.42,229.1,-9999.0,'1111122,1111122,1111122' 
DISL,ioos:station:DISL:MHPA:1,2019-01-04T16:00:00Z,30.6671,-87.9365,8.5,5.65,234.3,-9999.0,'1111122,1111122,1111122' 
DISL,ioos:station:DISL:MHPA:1,2019-01-04T17:00:00Z,30.6671,-87.9365,8.5,9.9,273.8,-9999.0,'1111122,1111122,1111122' 
DISL,ioos:station:DISL:MHPA:1,2019-01-04T18:00:00Z,30.6671,-87.9365,8.5,7.75,265.9,-9999.0,'1111122,1111122,1111122' 
DISL,ioos:station:DISL:MHPA:1,2019-01-04T19:00:00Z,30.6671,-87.9365,8.5,7.49,263.1,-9999.0,'1111122,1111122,1111122' 
DISL,ioos:station:DISL:MHPA:1,2019-01-04T20:00:00Z,30.6671,-87.9365,8.5,5.97,267.8,-9999.0,'1111122,1111122,1111122' 
DISL,ioos:station:DISL:MHPA:1,2019-01-04T21:00:00Z,30.6671,-87.9365,8.5,7.74,266.6,-9999.0,'1111122,1111122,1111122' 
DISL,ioos:station:DISL:MHPA:1,2019-01-04T22:00:00Z,30.6671,-87.9365,8.5,6.32,256.8,-9999.0,'1111122,1111122,1111122' 
DISL,ioos:station:DISL:MHPA:1,2019-01-04T23:00:00Z,30.6671,-87.9365,8.5,5.74,276.2,-9999.0,'1111122,1111122,1111122' 
DISL,ioos:station:DISL:MHPA:1,2019-01-05T00:00:00Z,30.6671,-87.9365,8.5,3.27,316.8,-9999.0,'1111122,1111122,1111122' 
DISL,ioos:station:DISL:MHPA:1,2019-01-05T01:00:00Z,30.6671,-87.9365,8.5,3.03,319.3,-9999.0,'1111122,1111122,1111122' 
DISL,ioos:station:DISL:MHPA:1,2019-01-05T02:00:00Z,30.6671,-87.9365,8.5,4.06,303.0,-9999.0,'1111122,1111122,1111122' 
DISL,ioos:station:DISL:MHPA:1,2019-01-05T02:30:00Z,30.6671,-87.9365,8.5,5.38,297.6,-9999.0,'1111122,1111122,1111122' 
DISL,ioos:station:DISL:MHPA:1,2019-01-05T04:00:00Z,30.6671,-87.9365,8.5,4.83,297.3,-9999.0,'1111122,1111122,1111122' 
DISL,ioos:station:DISL:MHPA:1,2019-01-05T05:00:00Z,30.6671,-87.9365,8.5,6.1,307.7,-9999.0,'1111122,1111122,1111122' 
DISL,ioos:station:DISL:MHPA:1,2019-01-05T06:00:00Z,30.6671,-87.9365,8.5,6.04,313.5,-9999.0,'1111122,1111122,1111122' 
DISL,ioos:station:DISL:MHPA:1,2019-01-05T07:00:00Z,30.6671,-87.9365,8.5,5.7,313.2,-9999.0,'1111122,1111122,1111122' 
DISL,ioos:station:DISL:MHPA:1,2019-01-05T08:00:00Z,30.6671,-87.9365,8.5,5.11,298.0,-9999.0,'1111122,1111122,1111122' 
DISL,ioos:station:DISL:MHPA:1,2019-01-05T09:00:00Z,30.6671,-87.9365,8.5,5.28,302.9,-9999.0,'1111122,1111122,1111122' 
DISL,ioos:station:DISL:MHPA:1,2019-01-05T10:00:00Z,30.6671,-87.9365,8.5,3.3,310.8,-9999.0,'1111122,1111122,1111122' 
DISL,ioos:station:DISL:MHPA:1,2019-01-05T11:00:00Z,30.6671,-87.9365,8.5,4.13,315.6,-9999.0,'1111122,1111122,1111122' 
DISL,ioos:station:DISL:MHPA:1,2019-01-05T12:00:00Z,30.6671,-87.9365,8.5,3.09,316.2,-9999.0,'1111122,1111122,1111122' 
DISL,ioos:station:DISL:MHPA:1,2019-01-05T13:00:00Z,30.6671,-87.9365,8.5,2.64,316.0,-9999.0,'1111122,1111122,1111122' 
DISL,ioos:station:DISL:MHPA:1,2019-01-05T14:00:00Z,30.6671,-87.9365,8.5,3.69,319.6,-9999.0,'1111122,1111122,1111122' 
DISL,ioos:station:DISL:MHPA:1,2019-01-05T15:00:00Z,30.6671,-87.9365,8.5,4.65,320.9,-9999.0,'1111122,1111122,1111122' 
DISL,ioos:station:DISL:MHPA:1,2019-01-05T16:00:00Z,30.6671,-87.9365,8.5,3.36,316.6,-9999.0,'1111122,1111122,1111122' 
DISL,ioos:station:DISL:MHPA:1,2019-01-05T17:00:00Z,30.6671,-87.9365,8.5,2.59,334.9,-9999.0,'1111122,1111122,1111122' 
DISL,ioos:station:DISL:MHPA:1,2019-01-05T18:00:00Z,30.6671,-87.9365,8.5,2.41,332.2,-9999.0,'1111122,1111122,1111122' 
DISL,ioos:station:DISL:MHPA:1,2019-01-05T19:00:00Z,30.6671,-87.9365,8.5,1.2,305.3,-9999.0,'1111122,1111122,1111122' 
DISL,ioos:station:DISL:MHPA:1,2019-01-05T20:00:00Z,30.6671,-87.9365,8.5,1.97,326.4,-9999.0,'1111122,1111122,1111122' 
DISL,ioos:station:DISL:MHPA:1,2019-01-05T21:00:00Z,30.6671,-87.9365,8.5,1.56,190.5,-9999.0,'1111122,1111122,1111122' 
DISL,ioos:station:DISL:MHPA:1,2019-01-05T22:00:00Z,30.6671,-87.9365,8.5,3.47,212.9,-9999.0,'1111122,1111122,1111122' 
DISL,ioos:station:DISL:MHPA:1,2019-01-05T23:00:00Z,30.6671,-87.9365,8.5,2.56,185.7,-9999.0,'1111122,1111122,1111122' 
DISL,ioos:station:DISL:MHPA:1,2019-01-06T00:00:00Z,30.6671,-87.9365,8.5,1.75,156.1,-9999.0,'1111122,1111122,1111122' 
DISL,ioos:station:DISL:MHPA:1,2019-01-06T01:00:00Z,30.6671,-87.9365,8.5,1.64,110.4,-9999.0,'1111122,1111122,1111122' 
DISL,ioos:station:DISL:MHPA:1,2019-01-06T02:00:00Z,30.6671,-87.9365,8.5,0.0,107.0,-9999.0,'1114422,1111122,1111122' 
DISL,ioos:station:DISL:MHPA:1,2019-01-06T17:00:00Z,30.6671,-87.9365,8.5,1.64,241.2,-9999.0,'1111122,1111122,1111122' 
DISL,ioos:station:DISL:MHPA:1,2019-01-06T18:00:00Z,30.6671,-87.9365,8.5,0.95,314.4,-9999.0,'1111122,1111122,1111122' 
DISL,ioos:station:DISL:MHPA:1,2019-01-06T19:00:00Z,30.6671,-87.9365,8.5,2.64,234.5,-9999.0,'1111122,1111122,1111122' 
DISL,ioos:station:DISL:MHPA:1,2019-01-06T19:30:00Z,30.6671,-87.9365,8.5,3.32,237.1,-9999.0,'1111122,1111122,1111122' 
DISL,ioos:station:DISL:MHPA:1,2019-01-07T16:00:00Z,30.6671,-87.9365,8.5,0.09,237.5,-9999.0,'1111122,1111122,1111122' 
DISL,ioos:station:DISL:MHPA:1,2019-01-07T17:00:00Z,30.6671,-87.9365,8.5,0.0,0.0,-9999.0,'1114422,1114422,1111122' 
DISL,ioos:station:DISL:MHPA:1,2019-01-07T18:00:00Z,30.6671,-87.9365,8.5,1.67,180.7,-9999.0,'1111122,1111122,1111122' 
DISL,ioos:station:DISL:MHPA:1,2019-01-07T19:00:00Z,30.6671,-87.9365,8.5,1.47,185.2,-9999.0,'1111122,1111122,1111122' 
DISL,ioos:station:DISL:MHPA:1,2019-01-07T20:00:00Z,30.6671,-87.9365,8.5,2.12,172.9,-9999.0,'1111122,1111122,1111122' 
DISL,ioos:station:DISL:MHPA:1,2019-01-07T21:00:00Z,30.6671,-87.9365,8.5,4.19,160.8,-9999.0,'1111122,1111122,1111122' 
DISL,ioos:station:DISL:MHPA:1,2019-01-07T22:00:00Z,30.6671,-87.9365,8.5,3.58,165.3,-9999.0,'1111122,1111122,1111122' 
DISL,ioos:station:DISL:MHPA:1,2019-01-07T23:00:00Z,30.6671,-87.9365,8.5,4.15,156.0,-9999.0,'1111122,1111122,1111122' 
DISL,ioos:station:DISL:MHPA:1,2019-01-08T00:00:00Z,30.6671,-87.9365,8.5,3.61,144.4,-9999.0,'1111122,1111122,1111122' 
DISL,ioos:station:DISL:MHPA:1,2019-01-08T01:00:00Z,30.6671,-87.9365,8.5,2.21,121.2,-9999.0,'1111122,1111122,1111122' 
DISL,ioos:station:DISL:MHPA:1,2019-01-08T02:00:00Z,30.6671,-87.9365,8.5,2.97,128.5,-9999.0,'1111122,1111122,1111122' 
DISL,ioos:station:DISL:MHPA:1,2019-01-08T03:00:00Z,30.6671,-87.9365,8.5,2.08,122.8,-9999.0,'1111122,1111122,1111122' 
DISL,ioos:station:DISL:MHPA:1,2019-01-08T04:00:00Z,30.6671,-87.9365,8.5,3.88,131.8,-9999.0,'1111122,1111122,1111122' 
DISL,ioos:station:DISL:MHPA:1,2019-01-08T05:00:00Z,30.6671,-87.9365,8.5,2.75,127.0,-9999.0,'1111122,1111122,1111122' 
DISL,ioos:station:DISL:MHPA:1,2019-01-08T06:00:00Z,30.6671,-87.9365,8.5,0.0,0.0,-9999.0,'1114422,1114422,1111122' 
DISL,ioos:station:DISL:MHPA:1,2019-01-08T07:00:00Z,30.6671,-87.9365,8.5,0.0,0.0,-9999.0,'1114422,1114422,1111122' 
DISL,ioos:station:DISL:MHPA:1,2019-01-08T08:00:00Z,30.6671,-87.9365,8.5,0.0,0.0,-9999.0,'1114422,1114422,1111122' 
DISL,ioos:station:DISL:MHPA:1,2019-01-08T09:00:00Z,30.6671,-87.9365,8.5,0.0,0.0,-9999.0,'1114422,1114422,1111122' 
DISL,ioos:station:DISL:MHPA:1,2019-01-08T10:00:00Z,30.6671,-87.9365,8.5,1.41,119.8,-9999.0,'1111122,1111122,1111122' 
DISL,ioos:station:DISL:MHPA:1,2019-01-08T11:00:00Z,30.6671,-87.9365,8.5,2.07,114.5,-9999.0,'1111122,1111122,1111122' 
DISL,ioos:station:DISL:MHPA:1,2019-01-08T12:00:00Z,30.6671,-87.9365,8.5,1.32,117.6,-9999.0,'1111122,1111122,1111122' 
DISL,ioos:station:DISL:MHPA:1,2019-01-08T13:00:00Z,30.6671,-87.9365,8.5,0.0,0.0,-9999.0,'1114422,1114422,1111122' 
DISL,ioos:station:DISL:MHPA:1,2019-01-08T14:00:00Z,30.6671,-87.9365,8.5,0.0,0.0,-9999.0,'1114422,1114422,1111122' 
DISL,ioos:station:DISL:MHPA:1,2019-01-08T15:00:00Z,30.6671,-87.9365,8.5,0.15,152.5,-9999.0,'1111122,1111122,1111122' 
DISL,ioos:station:DISL:MHPA:1,2019-01-08T16:00:00Z,30.6671,-87.9365,8.5,0.56,165.4,-9999.0,'1111122,1111122,1111122' 
DISL,ioos:station:DISL:MHPA:1,2019-01-08T17:00:00Z,30.6671,-87.9365,8.5,3.17,159.1,-9999.0,'1111122,1111122,1111122' 
DISL,ioos:station:DISL:MHPA:1,2019-01-08T18:00:00Z,30.6671,-87.9365,8.5,3.28,162.4,-9999.0,'1111122,1111122,1111122' 
DISL,ioos:station:DISL:MHPA:1,2019-01-08T19:00:00Z,30.6671,-87.9365,8.5,3.81,162.2,-9999.0,'1111122,1111122,1111122' 
DISL,ioos:station:DISL:MHPA:1,2019-01-08T20:00:00Z,30.6671,-87.9365,8.5,3.67,161.6,-9999.0,'1111122,1111122,1111122' 
DISL,ioos:station:DISL:MHPA:1,2019-01-08T21:00:00Z,30.6671,-87.9365,8.5,3.45,156.5,-9999.0,'1111122,1111122,1111122' 
DISL,ioos:station:DISL:MHPA:1,2019-01-08T22:00:00Z,30.6671,-87.9365,8.5,2.45,145.3,-9999.0,'1111122,1111122,1111122' 
DISL,ioos:station:DISL:MHPA:1,2019-01-08T23:00:00Z,30.6671,-87.9365,8.5,0.49,130.7,-9999.0,'1111122,1111122,1111122' 
DISL,ioos:station:DISL:MHPA:1,2019-01-09T00:00:00Z,30.6671,-87.9365,8.5,1.83,133.2,-9999.0,'1111122,1111122,1111122' 
DISL,ioos:station:DISL:MHPA:1,2019-01-09T01:00:00Z,30.6671,-87.9365,8.5,1.66,143.6,-9999.0,'1111122,1111122,1111122' 
DISL,ioos:station:DISL:MHPA:1,2019-01-09T02:00:00Z,30.6671,-87.9365,8.5,0.22,121.8,-9999.0,'1111122,1111122,1111122' 
DISL,ioos:station:DISL:MHPA:1,2019-01-09T03:00:00Z,30.6671,-87.9365,8.5,0.0,0.0,-9999.0,'1114422,1114422,1111122' 
DISL,ioos:station:DISL:MHPA:1,2019-01-09T04:00:00Z,30.6671,-87.9365,8.5,0.0,0.0,-9999.0,'1114422,1114422,1111122' 
DISL,ioos:station:DISL:MHPA:1,2019-01-09T05:00:00Z,30.6671,-87.9365,8.5,0.0,0.0,-9999.0,'1114422,1114422,1111122' 
DISL,ioos:station:DISL:MHPA:1,2019-01-09T06:00:00Z,30.6671,-87.9365,8.5,0.0,0.0,-9999.0,'1114422,1114422,1111122' 
DISL,ioos:station:DISL:MHPA:1,2019-01-09T07:00:00Z,30.6671,-87.9365,8.5,2.28,349.0,-9999.0,'1111122,1111122,1111122' 
DISL,ioos:station:DISL:MHPA:1,2019-01-09T08:00:00Z,30.6671,-87.9365,8.5,1.35,1.861,-9999.0,'1111122,1111122,1111122' 
DISL,ioos:station:DISL:MHPA:1,2019-01-09T09:00:00Z,30.6671,-87.9365,8.5,2.08,0.6,-9999.0,'1111122,1111122,1111122' 
DISL,ioos:station:DISL:MHPA:1,2019-01-09T10:00:00Z,30.6671,-87.9365,8.5,3.03,339.0,-9999.0,'1111122,1111122,1111122' 
DISL,ioos:station:DISL:MHPA:1,2019-01-09T11:00:00Z,30.6671,-87.9365,8.5,2.96,337.8,-9999.0,'1111122,1111122,1111122' 
DISL,ioos:station:DISL:MHPA:1,2019-01-09T12:00:00Z,30.6671,-87.9365,8.5,3.63,342.9,-9999.0,'1111122,1111122,1111122' 
DISL,ioos:station:DISL:MHPA:1,2019-01-09T13:00:00Z,30.6671,-87.9365,8.5,4.23,334.5,-9999.0,'1111122,1111122,1111122' 
DISL,ioos:station:DISL:MHPA:1,2019-01-09T14:00:00Z,30.6671,-87.9365,8.5,4.68,332.0,-9999.0,'1111122,1111122,1111122' 
DISL,ioos:station:DISL:MHPA:1,2019-01-09T15:00:00Z,30.6671,-87.9365,8.5,5.07,334.4,-9999.0,'1111122,1111122,1111122' 
DISL,ioos:station:DISL:MHPA:1,2019-01-09T18:00:00Z,30.6671,-87.9365,8.5,5.26,347.9,-9999.0,'1111122,1111122,1111122' 
DISL,ioos:station:DISL:MHPA:1,2019-01-09T19:00:00Z,30.6671,-87.9365,8.5,4.9,345.4,-9999.0,'1111122,1111122,1111122' 
DISL,ioos:station:DISL:MHPA:1,2019-01-09T20:00:00Z,30.6671,-87.9365,8.5,5.5,330.4,-9999.0,'1111122,1111122,1111122' 
DISL,ioos:station:DISL:MHPA:1,2019-01-09T21:00:00Z,30.6671,-87.9365,8.5,4.24,331.1,-9999.0,'1111122,1111122,1111122' 
DISL,ioos:station:DISL:MHPA:1,2019-01-09T22:00:00Z,30.6671,-87.9365,8.5,5.26,326.2,-9999.0,'1111122,1111122,1111122' 
DISL,ioos:station:DISL:MHPA:1,2019-01-09T23:00:00Z,30.6671,-87.9365,8.5,3.48,314.3,-9999.0,'1111122,1111122,1111122' 
DISL,ioos:station:DISL:MHPA:1,2019-01-10T00:00:00Z,30.6671,-87.9365,8.5,2.12,330.7,-9999.0,'1111122,1111122,1111122' 
DISL,ioos:station:DISL:MHPA:1,2019-01-10T01:00:00Z,30.6671,-87.9365,8.5,2.39,326.9,-9999.0,'1111122,1111122,1111122' 
DISL,ioos:station:DISL:MHPA:1,2019-01-10T02:00:00Z,30.6671,-87.9365,8.5,2.74,328.2,-9999.0,'1111122,1111122,1111122' 
DISL,ioos:station:DISL:MHPA:1,2019-01-10T03:00:00Z,30.6671,-87.9365,8.5,3.16,330.6,-9999.0,'1111122,1111122,1111122' 
DISL,ioos:station:DISL:MHPA:1,2019-01-10T04:00:00Z,30.6671,-87.9365,8.5,3.66,334.0,-9999.0,'1111122,1111122,1111122' 
DISL,ioos:station:DISL:MHPA:1,2019-01-10T05:00:00Z,30.6671,-87.9365,8.5,4.15,340.7,-9999.0,'1111122,1111122,1111122' 
DISL,ioos:station:DISL:MHPA:1,2019-01-10T06:00:00Z,30.6671,-87.9365,8.5,4.16,343.1,-9999.0,'1111122,1111122,1111122' 
DISL,ioos:station:DISL:MHPA:1,2019-01-10T07:00:00Z,30.6671,-87.9365,8.5,4.79,352.0,-9999.0,'1111122,1111122,1111122' 
DISL,ioos:station:DISL:MHPA:1,2019-01-10T08:00:00Z,30.6671,-87.9365,8.5,4.56,347.2,-9999.0,'1111122,1111122,1111122' 
DISL,ioos:station:DISL:MHPA:1,2019-01-10T09:00:00Z,30.6671,-87.9365,8.5,2.81,0.454,-9999.0,'1111122,1111122,1111122' 
DISL,ioos:station:DISL:MHPA:1,2019-01-10T10:00:00Z,30.6671,-87.9365,8.5,4.73,355.0,-9999.0,'1111122,1111122,1111122' 
DISL,ioos:station:DISL:MHPA:1,2019-01-10T11:00:00Z,30.6671,-87.9365,8.5,4.21,12.1,-9999.0,'1111122,1111122,1111122' 
DISL,ioos:station:DISL:MHPA:1,2019-01-10T12:00:00Z,30.6671,-87.9365,8.5,4.47,8.85,-9999.0,'1111122,1111122,1111122' 
DISL,ioos:station:DISL:MHPA:1,2019-01-10T13:00:00Z,30.6671,-87.9365,8.5,4.92,350.3,-9999.0,'1111122,1111122,1111122' 
DISL,ioos:station:DISL:MHPA:1,2019-01-10T14:00:00Z,30.6671,-87.9365,8.5,3.18,341.8,-9999.0,'1111122,1111122,1111122' 
DISL,ioos:station:DISL:MHPA:1,2019-01-10T15:00:00Z,30.6671,-87.9365,8.5,3.74,352.7,-9999.0,'1111122,1111122,1111122' 
DISL,ioos:station:DISL:MHPA:1,2019-01-10T16:00:00Z,30.6671,-87.9365,8.5,3.96,355.7,-9999.0,'1111122,1111122,1111122' 
DISL,ioos:station:DISL:MHPA:1,2019-01-10T16:50:00Z,30.6671,-87.9365,8.5,2.85,8.91,-9999.0,'1111122,1111122,1111122' 
DISL,ioos:station:DISL:MHPA:1,2019-01-10T17:50:00Z,30.6671,-87.9365,8.5,3.25,325.2,-9999.0,'1111122,1111122,1111122' 
DISL,ioos:station:DISL:MHPA:1,2019-01-10T19:00:00Z,30.6671,-87.9365,8.5,4.28,332.0,-9999.0,'1111122,1111122,1111122' 
DISL,ioos:station:DISL:MHPA:1,2019-01-10T20:00:00Z,30.6671,-87.9365,8.5,4.26,342.6,-9999.0,'1111122,1111122,1111122' 
DISL,ioos:station:DISL:MHPA:1,2019-01-10T21:00:00Z,30.6671,-87.9365,8.5,3.9,341.5,-9999.0,'1111122,1111122,1111122' 
DISL,ioos:station:DISL:MHPA:1,2019-01-10T22:00:00Z,30.6671,-87.9365,8.5,3.87,355.2,-9999.0,'1111122,1111122,1111122' 
DISL,ioos:station:DISL:MHPA:1,2019-01-10T23:00:00Z,30.6671,-87.9365,8.5,2.76,355.0,-9999.0,'1111122,1111122,1111122' 
DISL,ioos:station:DISL:MHPA:1,2019-01-11T00:00:00Z,30.6671,-87.9365,8.5,2.01,324.1,-9999.0,'1111122,1111122,1111122' 
DISL,ioos:station:DISL:MHPA:1,2019-01-11T01:00:00Z,30.6671,-87.9365,8.5,2.87,336.3,-9999.0,'1111122,1111122,1111122' 
DISL,ioos:station:DISL:MHPA:1,2019-01-11T02:00:00Z,30.6671,-87.9365,8.5,1.76,355.2,-9999.0,'1111122,1111122,1111122' 
DISL,ioos:station:DISL:MHPA:1,2019-01-11T03:00:00Z,30.6671,-87.9365,8.5,1.59,37.37,-9999.0,'1111122,1111122,1111122' 
DISL,ioos:station:DISL:MHPA:1,2019-01-11T04:00:00Z,30.6671,-87.9365,8.5,1.34,350.7,-9999.0,'1111122,1111122,1111122' 
DISL,ioos:station:DISL:MHPA:1,2019-01-11T05:00:00Z,30.6671,-87.9365,8.5,1.31,20.19,-9999.0,'1111122,1111122,1111122' 
DISL,ioos:station:DISL:MHPA:1,2019-01-11T06:00:00Z,30.6671,-87.9365,8.5,0.27,6.36,-9999.0,'1111122,1111122,1111122' 
DISL,ioos:station:DISL:MHPA:1,2019-01-11T07:00:00Z,30.6671,-87.9365,8.5,1.4,31.01,-9999.0,'1111122,1111122,1111122' 
DISL,ioos:station:DISL:MHPA:1,2019-01-11T08:00:00Z,30.6671,-87.9365,8.5,1.55,356.7,-9999.0,'1111122,1111122,1111122' 
DISL,ioos:station:DISL:MHPA:1,2019-01-11T09:00:00Z,30.6671,-87.9365,8.5,1.99,359.5,-9999.0,'1111122,1111122,1111122' 
DISL,ioos:station:DISL:MHPA:1,2019-01-11T10:00:00Z,30.6671,-87.9365,8.5,0.77,26.36,-9999.0,'1111122,1111122,1111122' 
DISL,ioos:station:DISL:MHPA:1,2019-01-11T11:00:00Z,30.6671,-87.9365,8.5,1.74,15.53,-9999.0,'1111122,1111122,1111122' 
DISL,ioos:station:DISL:MHPA:1,2019-01-11T12:00:00Z,30.6671,-87.9365,8.5,1.65,17.68,-9999.0,'1111122,1111122,1111122' 
DISL,ioos:station:DISL:MHPA:1,2019-01-11T13:00:00Z,30.6671,-87.9365,8.5,0.87,359.4,-9999.0,'1111122,1111122,1111122' 
DISL,ioos:station:DISL:MHPA:1,2019-01-11T14:00:00Z,30.6671,-87.9365,8.5,2.33,49.44,-9999.0,'1111122,1111122,1111122' 
DISL,ioos:station:DISL:MHPA:1,2019-01-11T15:00:00Z,30.6671,-87.9365,8.5,2.21,53.94,-9999.0,'1111122,1111122,1111122' 
DISL,ioos:station:DISL:MHPA:1,2019-01-11T16:00:00Z,30.6671,-87.9365,8.5,2.3,98.9,-9999.0,'1111122,1111122,1111122' 
DISL,ioos:station:DISL:MHPA:1,2019-01-11T17:00:00Z,30.6671,-87.9365,8.5,0.59,229.3,-9999.0,'1111122,1111122,1111122' 
DISL,ioos:station:DISL:MHPA:1,2019-01-11T18:00:00Z,30.6671,-87.9365,8.5,3.04,248.2,-9999.0,'1111122,1111122,1111122' 
DISL,ioos:station:DISL:MHPA:1,2019-01-11T19:00:00Z,30.6671,-87.9365,8.5,2.25,237.4,-9999.0,'1111122,1111122,1111122' 
DISL,ioos:station:DISL:MHPA:1,2019-01-11T20:00:00Z,30.6671,-87.9365,8.5,2.95,244.6,-9999.0,'1111122,1111122,1111122' 
DISL,ioos:station:DISL:MHPA:1,2019-01-11T21:00:00Z,30.6671,-87.9365,8.5,2.66,251.2,-9999.0,'1111122,1111122,1111122' 
DISL,ioos:station:DISL:MHPA:1,2019-01-11T22:00:00Z,30.6671,-87.9365,8.5,1.69,222.6,-9999.0,'1111122,1111122,1111122' 
DISL,ioos:station:DISL:MHPA:1,2019-01-11T23:00:00Z,30.6671,-87.9365,8.5,2.03,185.9,-9999.0,'1111122,1111122,1111122' 
DISL,ioos:station:DISL:MHPA:1,2019-01-12T00:00:00Z,30.6671,-87.9365,8.5,0.0,0.0,-9999.0,'1114422,1114422,1111122' 
DISL,ioos:station:DISL:MHPA:1,2019-01-12T01:00:00Z,30.6671,-87.9365,8.5,0.38,84.9,-9999.0,'1111122,1111122,1111122' 
DISL,ioos:station:DISL:MHPA:1,2019-01-12T02:00:00Z,30.6671,-87.9365,8.5,1.53,90.6,-9999.0,'1111122,1111122,1111122' 
DISL,ioos:station:DISL:MHPA:1,2019-01-12T03:00:00Z,30.6671,-87.9365,8.5,2.34,95.8,-9999.0,'1111122,1111122,1111122' 
DISL,ioos:station:DISL:MHPA:1,2019-01-12T04:00:00Z,30.6671,-87.9365,8.5,2.35,98.3,-9999.0,'1111122,1111122,1111122' 
DISL,ioos:station:DISL:MHPA:1,2019-01-12T05:00:00Z,30.6671,-87.9365,8.5,2.13,78.22,-9999.0,'1111122,1111122,1111122' 
DISL,ioos:station:DISL:MHPA:1,2019-01-12T06:00:00Z,30.6671,-87.9365,8.5,2.29,80.2,-9999.0,'1111122,1111122,1111122' 
DISL,ioos:station:DISL:MHPA:1,2019-01-12T07:00:00Z,30.6671,-87.9365,8.5,2.68,87.9,-9999.0,'1111122,1111122,1111122' 
DISL,ioos:station:DISL:MHPA:1,2019-01-12T08:00:00Z,30.6671,-87.9365,8.5,3.54,90.3,-9999.0,'1111122,1111122,1111122' 
DISL,ioos:station:DISL:MHPA:1,2019-01-12T09:00:00Z,30.6671,-87.9365,8.5,3.62,87.2,-9999.0,'1111122,1111122,1111122' 
DISL,ioos:station:DISL:MHPA:1,2019-01-12T10:00:00Z,30.6671,-87.9365,8.5,3.95,92.1,-9999.0,'1111122,1111122,1111122' 
DISL,ioos:station:DISL:MHPA:1,2019-01-12T11:00:00Z,30.6671,-87.9365,8.5,3.84,95.2,-9999.0,'1111122,1111122,1111122' 
DISL,ioos:station:DISL:MHPA:1,2019-01-12T12:00:00Z,30.6671,-87.9365,8.5,4.13,97.5,-9999.0,'1111122,1111122,1111122' 
DISL,ioos:station:DISL:MHPA:1,2019-01-12T13:00:00Z,30.6671,-87.9365,8.5,4.49,90.5,-9999.0,'1111122,1111122,1111122' 
DISL,ioos:station:DISL:MHPA:1,2019-01-12T14:00:00Z,30.6671,-87.9365,8.5,4.0,88.4,-9999.0,'1111122,1111122,1111122' 
DISL,ioos:station:DISL:MHPA:1,2019-01-12T15:00:00Z,30.6671,-87.9365,8.5,4.35,100.3,-9999.0,'1111122,1111122,1111122' 
DISL,ioos:station:DISL:MHPA:1,2019-01-12T16:00:00Z,30.6671,-87.9365,8.5,2.97,126.6,-9999.0,'1111122,1111122,1111122' 
DISL,ioos:station:DISL:MHPA:1,2019-01-12T17:00:00Z,30.6671,-87.9365,8.5,4.76,121.6,-9999.0,'1111122,1111122,1111122' 
DISL,ioos:station:DISL:MHPA:1,2019-01-12T18:00:00Z,30.6671,-87.9365,8.5,4.68,116.0,-9999.0,'1111122,1111122,1111122' 
DISL,ioos:station:DISL:MHPA:1,2019-01-12T19:00:00Z,30.6671,-87.9365,8.5,4.25,130.4,-9999.0,'1111122,1111122,1111122' 
DISL,ioos:station:DISL:MHPA:1,2019-01-12T20:00:00Z,30.6671,-87.9365,8.5,7.09,148.6,-9999.0,'1111122,1111122,1111122' 
DISL,ioos:station:DISL:MHPA:1,2019-01-12T21:00:00Z,30.6671,-87.9365,8.5,7.58,149.6,-9999.0,'1111122,1111122,1111122' 
DISL,ioos:station:DISL:MHPA:1,2019-01-12T22:00:00Z,30.6671,-87.9365,8.5,8.67,155.4,-9999.0,'1111122,1111122,1111122' 
DISL,ioos:station:DISL:MHPA:1,2019-01-12T23:00:00Z,30.6671,-87.9365,8.5,8.17,156.7,-9999.0,'1111122,1111122,1111122' 
DISL,ioos:station:DISL:MHPA:1,2019-01-13T00:00:00Z,30.6671,-87.9365,8.5,8.76,154.6,-9999.0,'1111122,1111122,1111122' 
DISL,ioos:station:DISL:MHPA:1,2019-01-13T01:00:00Z,30.6671,-87.9365,8.5,6.66,202.5,-9999.0,'1111122,1111122,1111122' 
DISL,ioos:station:DISL:MHPA:1,2019-01-13T02:00:00Z,30.6671,-87.9365,8.5,1.88,171.9,-9999.0,'1111122,1111122,1111122' 
DISL,ioos:station:DISL:MHPA:1,2019-01-13T03:00:00Z,30.6671,-87.9365,8.5,1.83,176.2,-9999.0,'1111122,1111122,1111122' 
DISL,ioos:station:DISL:MHPA:1,2019-01-13T04:00:00Z,30.6671,-87.9365,8.5,1.76,148.8,-9999.0,'1111122,1111122,1111122' 
DISL,ioos:station:DISL:MHPA:1,2019-01-13T05:00:00Z,30.6671,-87.9365,8.5,0.0,0.0,-9999.0,'1114422,1114422,1111122' 
DISL,ioos:station:DISL:MHPA:1,2019-01-13T06:00:00Z,30.6671,-87.9365,8.5,1.31,215.4,-9999.0,'1111122,1111122,1111122' 
DISL,ioos:station:DISL:MHPA:1,2019-01-13T07:00:00Z,30.6671,-87.9365,8.5,1.61,271.6,-9999.0,'1111122,1111122,1111122' 
DISL,ioos:station:DISL:MHPA:1,2019-01-13T08:00:00Z,30.6671,-87.9365,8.5,2.08,268.3,-9999.0,'1111122,1111122,1111122' 
DISL,ioos:station:DISL:MHPA:1,2019-01-13T09:00:00Z,30.6671,-87.9365,8.5,2.46,292.5,-9999.0,'1111122,1111122,1111122' 
DISL,ioos:station:DISL:MHPA:1,2019-01-13T10:00:00Z,30.6671,-87.9365,8.5,2.09,288.1,-9999.0,'1111122,1111122,1111122' 
DISL,ioos:station:DISL:MHPA:1,2019-01-13T11:00:00Z,30.6671,-87.9365,8.5,1.68,319.2,-9999.0,'1111122,1111122,1111122' 
DISL,ioos:station:DISL:MHPA:1,2019-01-13T12:00:00Z,30.6671,-87.9365,8.5,4.21,306.6,-9999.0,'1111122,1111122,1111122' 